This demonstration page uses our WeatherBlox Daily Observations layout. Learn more.

Left ArrowRight Arrow

Hourly Observations for March 10, 2020

Temp ( °F °C ) Dew Point ( °F °C ) Humidity (%) Winds ( mph kmh ) Pressure ( in mb ) Visibility ( mi km ) Precip ( " mm )
12:51 am 00:51 Clear 58 14.4 42 5.6 56 56 S 3 6 30.08 1019 10 16 0.00 0.00
1:51 am 01:51 Clear 53 11.7 43 6.1 69 69 ENE 3 6 30.09 1019 10 16 0.00 0.00
2:51 am 02:51 Clear 50 10 42 5.6 74 74 Calm 30.09 1019 10 16 0.00 0.00
3:51 am 03:51 Clear 49 9.4 42 5.6 77 77 NE 8 13 30.09 1019 10 16 0.00 0.00
4:51 am 04:51 Clear 51 10.6 42 5.6 71 71 ESE 7 11 30.08 1019 10 16 0.00 0.00
5:51 am 05:51 Clear 53 11.7 40 4.4 61 61 ESE 8 13 30.10 1019 10 16 0.00 0.00
6:51 am 06:51 Mostly Cloudy 52 11.1 41 5 66 66 ESE 6 9 30.13 1020 10 16 0.00 0.00
7:51 am 07:51 Cloudy 57 13.9 42 5.6 58 58 E 7 11 30.13 1020 10 16 0.00 0.00
8:51 am 08:51 Cloudy 62 16.7 44 6.7 52 52 E 8 13 30.14 1021 10 16 0.00 0.00
9:51 am 09:51 Mostly Cloudy 65 18.3 47 8.3 52 52 E 7 11 30.15 1021 10 16 0.00 0.00
10:51 am 10:51 Mostly Sunny 68 20 47 8.3 47 47 SE 7 11 30.15 1021 10 16 0.00 0.00
11:51 am 11:51 Cloudy 69 20.6 47 8.3 45 45 VRB 5 7 30.14 1021 10 16 0.00 0.00
12:51 pm 12:51 Cloudy 71 21.7 46 7.8 41 41 ESE 6 9 30.11 1020 10 16 0.00 0.00
1:51 pm 13:51 Cloudy 70 21.1 47 8.3 44 44 Calm 30.09 1019 10 16 0.00 0.00
2:51 pm 14:51 Cloudy 70 21.1 47 8.3 44 44 Calm 30.08 1019 10 16 0.00 0.00
3:51 pm 15:51 Cloudy 70 21.1 48 8.9 46 46 NW 6 9 30.08 1019 10 16 0.00 0.00
4:51 pm 16:51 Cloudy 69 20.6 47 8.3 45 45 W 7 11 30.09 1019 10 16 0.00 0.00
5:51 pm 17:51 Cloudy 67 19.4 47 8.3 49 49 NW 3 6 30.09 1019 10 16 0.00 0.00
6:51 pm 18:51 Mostly Cloudy 64 17.8 48 8.9 56 56 Calm 30.11 1020 10 16 0.00 0.00
7:51 pm 19:51 Clear 63 17.2 48 8.9 58 58 Calm 30.10 1019 10 16 0.00 0.00
8:51 pm 20:51 Mostly Cloudy 62 16.7 50 10 65 65 Calm 30.10 1019 10 16 0.00 0.00
9:51 pm 21:51 Cloudy with Light Rain 60 15.6 53 11.7 78 78 Calm 30.11 1020 10 16 0.00 0.00
10:51 pm 22:51 Cloudy 58 14.4 54 12.2 87 87 ENE 8 13 30.11 1020 10 16 0.01 0.25
11:51 pm 23:51 Cloudy with Light Rain 58 14.4 55 12.8 90 90 E 8 13 30.10 1019 10 16 0.01 0.25

Powered by AerisWeather